This is the latest recevied weather packets stored in our database for station/object N6GPM. If no packets are shown the sender has not sent any weather packets the latest 10 day(s).
| Time | Temp. | Humidity | Pressure | Rain* | Wind** | Luminosity | Snow |
|---|---|---|---|---|---|---|---|
| 1777386922 | 9.44° C | 77% | 1021.2 hPa | 0 mm | - | 108 W/m² | - |
| 1777386620 | 9.44° C | 77% | 1021.4 hPa | 0 mm | - | 167 W/m² | - |
| 1777386316 | 8.89° C | 78% | 1021.2 hPa | 0 mm | - | 116 W/m² | - |
| 1777386014 | 8.89° C | 78% | 1021.5 hPa | 0 mm | - | 91 W/m² | - |
| 1777385710 | 8.89° C | 79% | 1021.4 hPa | 0 mm | - | 110 W/m² | - |
| 1777385407 | 8.33° C | 80% | 1021.5 hPa | 0 mm | - | 83 W/m² | - |
| 1777385104 | 8.33° C | 81% | 1021.4 hPa | 0 mm | - | 59 W/m² | - |
| 1777384799 | 8.33° C | 81% | 1021.5 hPa | 0 mm | - | 59 W/m² | - |
| 1777384497 | 7.78° C | 82% | 1021.4 hPa | 0 mm | - | 65 W/m² | - |
| 1777384191 | 7.78° C | 82% | 1021.5 hPa | 0 mm | - | 49 W/m² | - |
| 1777383888 | 7.78° C | 83% | 1021.5 hPa | 0 mm | - | 43 W/m² | - |
| 1777383584 | 7.78° C | 83% | 1021.5 hPa | 0 mm | - | 31 W/m² | - |
| 1777383280 | 7.78° C | 84% | 1021.2 hPa | 0 mm | - | 27 W/m² | - |
| 1777382977 | 7.22° C | 84% | 1021.1 hPa | 0 mm | - | 22 W/m² | - |
| 1777382672 | 7.22° C | 84% | 1021.2 hPa | 0 mm | - | 17 W/m² | - |
| 1777382368 | 7.22° C | 85% | 1021.2 hPa | 0 mm | - | 13 W/m² | - |
| 1777382065 | 7.22° C | 85% | 1021.1 hPa | 0 mm | - | 10 W/m² | - |
| 1777381761 | 7.22° C | 85% | 1020.8 hPa | 0 mm | - | 5 W/m² | - |
| 1777381456 | 7.22° C | 85% | 1020.7 hPa | 0 mm | - | 2 W/m² | - |
| 1777381152 | 7.22° C | 85% | 1020.7 hPa | 0 mm | - | 0 W/m² | - |
| 1777380849 | 7.22° C | 85% | 1020.5 hPa | 0 mm | - | 0 W/m² | - |
| 1777380546 | 7.22° C | 85% | 1020.6 hPa | 0 mm | - | 0 W/m² | - |
| 1777380242 | 7.22° C | 85% | 1020.5 hPa | 0 mm | - | 0 W/m² | - |
| 1777379938 | 7.22° C | 85% | 1020.4 hPa | 0 mm | - | 0 W/m² | - |
| 1777379634 | 7.22° C | 85% | 1020 hPa | 0 mm | - | 0 W/m² | - |
* Rain latest hour (hover to see other rain measurements)
** Current wind speed in m/s (hover to see current wind gust speed)